TGL9302 LFKJ-ESSA

Flight info

Callsign TGL9302
Flight time 2h 53m
Altitude 32000
Route TORTU DCT OLETI DCT LUKIM DCT GOLAS DCT APRIV DCT GIBLO DCT OSKOR DCT NESTI DCT TAGIP DCT DIBAX DCT EKPIS DCT BRENO M726 SALLO M736 SIMEG DCT TIDVU P605 EKRAL DCT ETPIG DCT BEDOS N851 PELUP Z226 NILUG
Aircraft A320/M-SDE3FGHIRWY/LB1

Departure

Time 2026-04-11 08:07
Airport Ajaccio Napoléon Bonaparte airport (LFKJ)

Arrival

Time 2026-04-11 11:01
Airport Stockholm-Arlanda Airport (ESSA)
Time Latitude Longitude Altitude Speed Heading
2026-04-11 07:39 41.91900 8.79542 26 ft 0 kts 346°
2026-04-11 08:00 41.91902 8.79541 26 ft 1 kts 346°
2026-04-11 08:00 41.91913 8.79552 28 ft 3 kts 66°
2026-04-11 08:00 41.91905 8.79597 26 ft 6 kts 86°
2026-04-11 08:01 41.91945 8.79636 29 ft 9 kts 25°
2026-04-11 08:01 41.92008 8.79676 28 ft 11 kts 25°
2026-04-11 08:01 41.92087 8.79725 27 ft 14 kts 25°
2026-04-11 08:01 41.92182 8.79784 26 ft 16 kts 24°
2026-04-11 08:02 41.92290 8.79850 27 ft 18 kts 24°
2026-04-11 08:02 41.92409 8.79925 27 ft 20 kts 25°
2026-04-11 08:02 41.92539 8.80007 29 ft 21 kts 25°
2026-04-11 08:02 41.92678 8.80093 26 ft 23 kts 25°
2026-04-11 08:03 41.92813 8.80208 26 ft 22 kts 46°
2026-04-11 08:03 41.92922 8.80355 29 ft 20 kts 46°
2026-04-11 08:03 41.92961 8.80432 30 ft 7 kts 79°
2026-04-11 08:03 41.92961 8.80437 30 ft 0 kts 85°
2026-04-11 08:04 41.92961 8.80439 30 ft 1 kts 85°
2026-04-11 08:04 41.92963 8.80465 31 ft 4 kts 86°
2026-04-11 08:05 41.92952 8.80511 31 ft 6 kts 113°
2026-04-11 08:05 41.92925 8.80574 31 ft 9 kts 142°
2026-04-11 08:05 41.92874 8.80549 31 ft 8 kts 206°
2026-04-11 08:05 41.92864 8.80543 31 ft 0 kts 204°
2026-04-11 08:06 41.92863 8.80542 31 ft 4 kts 204°
2026-04-11 08:06 41.92570 8.80359 27 ft 89 kts 205°
2026-04-11 08:07 41.91788 8.79871 43 ft 152 kts 205°
2026-04-11 08:07 41.90868 8.79160 736 ft 153 kts 220°
2026-04-11 08:07 41.90215 8.78014 1462 ft 159 kts 248°
2026-04-11 08:08 41.89454 8.74949 2525 ft 194 kts 243°
2026-04-11 08:08 41.88717 8.73327 2970 ft 214 kts 238°
2026-04-11 08:08 41.87852 8.71588 3439 ft 233 kts 237°
2026-04-11 08:08 41.86954 8.69780 4316 ft 233 kts 238°
2026-04-11 08:09 41.86211 8.67869 5219 ft 231 kts 258°
2026-04-11 08:09 41.86203 8.65737 6055 ft 231 kts 287°
2026-04-11 08:09 41.86974 8.63868 6864 ft 233 kts 314°
2026-04-11 08:09 41.88237 8.62495 7677 ft 235 kts 322°
2026-04-11 08:10 41.89547 8.61163 8497 ft 237 kts 323°
2026-04-11 08:10 41.91059 8.60255 9308 ft 243 kts 348°
2026-04-11 08:10 41.92762 8.60373 10085 ft 252 kts 15°
2026-04-11 08:10 41.94382 8.61397 10680 ft 266 kts 25°
2026-04-11 08:11 41.96092 8.62605 10996 ft 289 kts 25°
2026-04-11 08:11 41.97946 8.63909 11251 ft 313 kts 25°
2026-04-11 08:11 41.99946 8.65310 11480 ft 336 kts 25°
2026-04-11 08:11 42.01345 8.66286 11758 ft 346 kts 25°
2026-04-11 08:12 42.04230 8.68295 12720 ft 352 kts 25°
2026-04-11 08:12 42.05679 8.69304 13205 ft 355 kts 25°
2026-04-11 08:12 42.07889 8.70841 13926 ft 360 kts 25°
2026-04-11 08:12 42.10127 8.72397 14588 ft 364 kts 25°
2026-04-11 08:13 42.12389 8.73971 15269 ft 368 kts 25°
2026-04-11 08:13 42.14678 8.75563 15937 ft 373 kts 25°
2026-04-11 08:13 42.16997 8.77177 16572 ft 377 kts 25°
2026-04-11 08:13 42.19340 8.78809 17161 ft 381 kts 25°
2026-04-11 08:14 42.21709 8.80462 17799 ft 385 kts 25°
2026-04-11 08:14 42.24161 8.81946 18409 ft 388 kts 17°
2026-04-11 08:14 42.26767 8.82903 18965 ft 388 kts
2026-04-11 08:14 42.29449 8.83331 19547 ft 389 kts
2026-04-11 08:15 42.32159 8.83620 20108 ft 392 kts
2026-04-11 08:15 42.34890 8.83928 20696 ft 395 kts
2026-04-11 08:15 42.37646 8.84242 21218 ft 399 kts
2026-04-11 08:15 42.40420 8.84558 21808 ft 402 kts
2026-04-11 08:16 42.43180 8.84871 22349 ft 405 kts
2026-04-11 08:16 42.45996 8.85190 22903 ft 407 kts
2026-04-11 08:16 42.48825 8.85509 23420 ft 411 kts
2026-04-11 08:16 42.51696 8.85834 23901 ft 414 kts
2026-04-11 08:17 42.54580 8.86160 24313 ft 418 kts
2026-04-11 08:17 42.57485 8.86488 24737 ft 421 kts
2026-04-11 08:17 42.60418 8.86820 25142 ft 424 kts
2026-04-11 08:17 42.63371 8.87156 25533 ft 428 kts
2026-04-11 08:18 42.66351 8.87495 25912 ft 431 kts
2026-04-11 08:18 42.69345 8.87835 26292 ft 434 kts
2026-04-11 08:18 42.72372 8.88179 26668 ft 437 kts
2026-04-11 08:18 42.75413 8.88525 27027 ft 440 kts
2026-04-11 08:19 42.78472 8.88874 27380 ft 443 kts
2026-04-11 08:19 42.81556 8.89225 27720 ft 446 kts
2026-04-11 08:19 42.84660 8.89579 28064 ft 449 kts
2026-04-11 08:19 42.87777 8.89936 28385 ft 452 kts
2026-04-11 08:20 42.90921 8.90295 28703 ft 454 kts
2026-04-11 08:20 42.94082 8.90657 29024 ft 457 kts
2026-04-11 08:20 42.97258 8.91022 29331 ft 459 kts
2026-04-11 08:20 43.00452 8.91388 29624 ft 462 kts
2026-04-11 08:21 43.03618 8.91752 29931 ft 464 kts
2026-04-11 08:21 43.06846 8.92124 30209 ft 467 kts
2026-04-11 08:21 43.10083 8.92497 30489 ft 468 kts
2026-04-11 08:21 43.13338 8.92872 30768 ft 470 kts
2026-04-11 08:22 43.16601 8.93249 31049 ft 471 kts
2026-04-11 08:22 43.19869 8.93627 31379 ft 471 kts
2026-04-11 08:22 43.23137 8.94006 31741 ft 471 kts
2026-04-11 08:22 43.26391 8.94383 31997 ft 470 kts
2026-04-11 08:23 43.32891 8.95138 32049 ft 468 kts
2026-04-11 08:23 43.39373 8.95892 32047 ft 468 kts
2026-04-11 08:24 43.45864 8.96659 32049 ft 468 kts
2026-04-11 08:24 43.52357 8.97433 32045 ft 468 kts
2026-04-11 08:25 43.58849 8.98207 32049 ft 468 kts
2026-04-11 08:25 43.65343 8.98982 32048 ft 468 kts
2026-04-11 08:26 43.71836 8.99758 32052 ft 468 kts
2026-04-11 08:26 43.78310 9.00743 32050 ft 470 kts 11°
2026-04-11 08:27 43.84409 9.03989 32047 ft 473 kts 29°
2026-04-11 08:27 43.89933 9.08955 32050 ft 473 kts 32°
2026-04-11 08:28 43.95452 9.13945 32053 ft 474 kts 32°
2026-04-11 08:28 44.00966 9.18952 32053 ft 474 kts 32°
2026-04-11 08:29 44.06477 9.23974 32053 ft 474 kts 32°
2026-04-11 08:29 44.11987 9.29008 32050 ft 474 kts 32°
2026-04-11 08:30 44.17460 9.34126 32049 ft 474 kts 34°
2026-04-11 08:30 44.22843 9.39440 32045 ft 474 kts 34°
2026-04-11 08:31 44.28191 9.44711 32049 ft 474 kts 34°
2026-04-11 08:31 44.33579 9.50003 32050 ft 474 kts 33°
2026-04-11 08:32 44.38968 9.55301 32043 ft 473 kts 33°
2026-04-11 08:32 44.44333 9.60589 32037 ft 471 kts 33°
2026-04-11 08:33 44.49489 9.66278 32039 ft 472 kts 37°
2026-04-11 08:33 44.54596 9.72070 32038 ft 472 kts 37°
2026-04-11 08:34 44.59691 9.77860 32044 ft 472 kts 37°
2026-04-11 08:34 44.64808 9.83634 32051 ft 471 kts 33°
2026-04-11 08:35 44.67633 9.85893 32052 ft 467 kts 21°
2026-04-11 08:35 44.70703 9.87280 32050 ft 462 kts
2026-04-11 08:35 44.73880 9.87739 32050 ft 457 kts 357°
2026-04-11 08:35 44.77060 9.87673 32045 ft 457 kts 356°
2026-04-11 08:36 44.83416 9.87468 32046 ft 457 kts 356°
2026-04-11 08:36 44.89776 9.87337 32048 ft 457 kts 356°
2026-04-11 08:37 44.96143 9.87242 32050 ft 458 kts 356°
2026-04-11 08:37 45.02511 9.87152 32054 ft 458 kts 356°
2026-04-11 08:38 45.08881 9.87062 32060 ft 458 kts 356°
2026-04-11 08:38 45.15207 9.86970 32067 ft 458 kts 356°
2026-04-11 08:39 45.21573 9.86879 32075 ft 457 kts 356°
2026-04-11 08:39 45.27935 9.86786 32074 ft 457 kts 356°
2026-04-11 08:40 45.34289 9.87215 32075 ft 461 kts
2026-04-11 08:40 45.37385 9.88472 32072 ft 465 kts 19°
2026-04-11 08:40 45.40305 9.90489 32070 ft 469 kts 28°
2026-04-11 08:41 45.45889 9.95287 32067 ft 469 kts 28°
2026-04-11 08:41 45.51477 10.00074 32069 ft 469 kts 28°
2026-04-11 08:42 45.57059 10.04876 32070 ft 469 kts 28°
2026-04-11 08:43 45.65063 10.12905 32075 ft 474 kts 42°
2026-04-11 08:43 45.69203 10.20266 32069 ft 477 kts 52°
2026-04-11 08:44 45.73059 10.27974 32074 ft 477 kts 52°
2026-04-11 08:44 45.76927 10.35718 32076 ft 477 kts 52°
2026-04-11 08:45 45.80772 10.43460 32075 ft 477 kts 52°
2026-04-11 08:45 45.84607 10.51213 32081 ft 476 kts 52°
2026-04-11 08:46 45.88406 10.58916 32076 ft 476 kts 52°
2026-04-11 08:46 45.92233 10.66693 32080 ft 477 kts 52°
2026-04-11 08:47 45.96057 10.74484 32076 ft 477 kts 52°
2026-04-11 08:47 45.99873 10.82267 32082 ft 476 kts 52°
2026-04-11 08:48 46.03683 10.90061 32086 ft 476 kts 52°
2026-04-11 08:48 46.07486 10.97864 32093 ft 476 kts 51°
2026-04-11 08:49 46.11768 11.05008 32099 ft 466 kts 33°
2026-04-11 08:49 46.14472 11.07500 32095 ft 459 kts 21°
2026-04-11 08:49 46.17418 11.09118 32099 ft 452 kts 12°
2026-04-11 08:50 46.23464 11.11592 32103 ft 451 kts 11°
2026-04-11 08:50 46.29502 11.14113 32105 ft 452 kts 12°
2026-04-11 08:51 46.35543 11.16710 32117 ft 453 kts 12°
2026-04-11 08:51 46.41581 11.19326 32085 ft 453 kts 12°
2026-04-11 08:52 46.50631 11.23263 32078 ft 452 kts 12°
2026-04-11 08:52 46.56645 11.25883 32072 ft 451 kts 12°
2026-04-11 08:53 46.62654 11.28508 32071 ft 451 kts 12°
2026-04-11 08:53 46.68668 11.31141 32075 ft 451 kts 12°
2026-04-11 08:54 46.74672 11.33774 32080 ft 451 kts 12°
2026-04-11 08:54 46.80706 11.35737 32087 ft 444 kts
2026-04-11 08:55 46.86899 11.36422 32090 ft 444 kts 359°
2026-04-11 08:55 46.93025 11.37113 32090 ft 445 kts 359°
2026-04-11 08:56 46.99196 11.37797 32078 ft 444 kts 359°
2026-04-11 08:56 47.05351 11.38421 32075 ft 442 kts 359°
2026-04-11 08:57 47.11485 11.39028 32072 ft 442 kts 359°
2026-04-11 08:57 47.17633 11.39643 32078 ft 441 kts 359°
2026-04-11 08:58 47.23756 11.40194 32075 ft 439 kts 355°
2026-04-11 08:58 47.29860 11.40194 32072 ft 438 kts 355°
2026-04-11 08:59 47.35969 11.40220 32074 ft 438 kts 355°
2026-04-11 08:59 47.42058 11.40218 32071 ft 437 kts 354°
2026-04-11 09:00 47.48134 11.40140 32058 ft 437 kts 354°
2026-04-11 09:00 47.54212 11.40064 32050 ft 437 kts 354°
2026-04-11 09:01 47.60279 11.39997 32055 ft 435 kts 354°
2026-04-11 09:01 47.65279 11.39557 32050 ft 432 kts 349°
2026-04-11 09:02 47.71261 11.38743 32043 ft 432 kts 349°
2026-04-11 09:02 47.77250 11.37940 32050 ft 432 kts 349°
2026-04-11 09:03 47.83233 11.37130 32053 ft 432 kts 349°
2026-04-11 09:03 47.89221 11.36408 32056 ft 433 kts 351°
2026-04-11 09:04 47.95252 11.35948 32059 ft 433 kts 351°
2026-04-11 09:04 48.01269 11.35471 32058 ft 433 kts 351°
2026-04-11 09:05 48.07275 11.34914 32054 ft 430 kts 348°
2026-04-11 09:05 48.13191 11.33750 32050 ft 429 kts 347°
2026-04-11 09:06 48.19101 11.32606 32055 ft 428 kts 347°
2026-04-11 09:06 48.24972 11.31465 32050 ft 428 kts 347°
2026-04-11 09:07 48.30884 11.30417 32047 ft 429 kts 348°
2026-04-11 09:07 48.36823 11.29522 32052 ft 429 kts 348°
2026-04-11 09:08 48.42765 11.28603 32052 ft 429 kts 348°
2026-04-11 09:08 48.48690 11.27667 32066 ft 428 kts 348°
2026-04-11 09:09 48.54621 11.26724 32072 ft 428 kts 348°
2026-04-11 09:09 48.60543 11.25781 32075 ft 428 kts 348°
2026-04-11 09:10 48.66461 11.24836 32076 ft 427 kts 348°
2026-04-11 09:10 48.72376 11.23887 32074 ft 427 kts 348°
2026-04-11 09:11 48.78283 11.22937 32075 ft 427 kts 348°
2026-04-11 09:11 48.84174 11.22023 32071 ft 428 kts 350°
2026-04-11 09:12 48.90177 11.21988 32064 ft 431 kts 354°
2026-04-11 09:12 48.96174 11.22012 32066 ft 431 kts 353°
2026-04-11 09:13 49.02134 11.22038 32068 ft 431 kts 353°
2026-04-11 09:13 49.08128 11.22070 32059 ft 431 kts 353°
2026-04-11 09:14 49.14129 11.22103 32074 ft 431 kts 353°
2026-04-11 09:14 49.20135 11.22138 32083 ft 432 kts 353°
2026-04-11 09:15 49.26142 11.22179 32086 ft 432 kts 353°
2026-04-11 09:15 49.32147 11.22230 32084 ft 432 kts 353°
2026-04-11 09:16 49.38152 11.22281 32087 ft 431 kts 353°
2026-04-11 09:16 49.44158 11.22330 32084 ft 431 kts 353°
2026-04-11 09:17 49.50157 11.22378 32082 ft 431 kts 353°
2026-04-11 09:17 49.56152 11.22427 32080 ft 431 kts 353°
2026-04-11 09:18 49.62146 11.22441 32082 ft 430 kts 353°
2026-04-11 09:18 49.68135 11.22446 32082 ft 430 kts 353°
2026-04-11 09:19 49.74117 11.22457 32081 ft 430 kts 353°
2026-04-11 09:19 49.80096 11.22474 32073 ft 430 kts 353°
2026-04-11 09:20 49.86077 11.22512 32074 ft 430 kts 353°
2026-04-11 09:20 49.92058 11.22549 32072 ft 429 kts 353°
2026-04-11 09:21 49.98033 11.22585 32071 ft 429 kts 353°
2026-04-11 09:21 50.04005 11.22620 32072 ft 429 kts 353°
2026-04-11 09:22 50.09978 11.22655 32077 ft 429 kts 353°
2026-04-11 09:22 50.15953 11.22691 32071 ft 429 kts 353°
2026-04-11 09:23 50.21884 11.22725 32077 ft 429 kts 353°
2026-04-11 09:23 50.27848 11.22760 32076 ft 429 kts 353°
2026-04-11 09:24 50.33813 11.22796 32066 ft 429 kts 353°
2026-04-11 09:24 50.39710 11.22248 32066 ft 423 kts 347°
2026-04-11 09:25 50.45575 11.21364 32062 ft 423 kts 347°
2026-04-11 09:25 50.51443 11.20489 32074 ft 423 kts 347°
2026-04-11 09:26 50.57301 11.19605 32068 ft 423 kts 347°
2026-04-11 09:26 50.63153 11.18719 32072 ft 422 kts 347°
2026-04-11 09:27 50.69008 11.17827 32071 ft 422 kts 347°
2026-04-11 09:27 50.74862 11.16932 32074 ft 423 kts 347°
2026-04-11 09:28 50.80714 11.16037 32076 ft 423 kts 347°
2026-04-11 09:28 50.86567 11.15139 32077 ft 422 kts 347°
2026-04-11 09:29 50.92419 11.14239 32077 ft 422 kts 347°
2026-04-11 09:29 50.98267 11.13337 32080 ft 422 kts 347°
2026-04-11 09:30 51.04111 11.12434 32077 ft 422 kts 347°
2026-04-11 09:30 51.09964 11.11568 32081 ft 424 kts 349°
2026-04-11 09:31 51.15933 11.12063 32076 ft 436 kts
2026-04-11 09:31 51.21921 11.13906 32082 ft 438 kts
2026-04-11 09:32 51.27902 11.15740 32087 ft 438 kts
2026-04-11 09:32 51.33891 11.17601 32093 ft 438 kts
2026-04-11 09:33 51.39868 11.19473 32099 ft 437 kts
2026-04-11 09:33 51.45839 11.21349 32100 ft 437 kts
2026-04-11 09:34 51.51806 11.23229 32103 ft 437 kts
2026-04-11 09:34 51.57730 11.25100 32112 ft 437 kts
2026-04-11 09:35 51.63692 11.26781 32121 ft 431 kts 358°
2026-04-11 09:35 51.69651 11.27913 32123 ft 431 kts 359°
2026-04-11 09:36 51.75609 11.29077 32128 ft 431 kts 359°
2026-04-11 09:36 51.81557 11.30236 32135 ft 430 kts 359°
2026-04-11 09:37 51.87504 11.31395 32131 ft 430 kts 359°
2026-04-11 09:37 51.93435 11.32553 32131 ft 429 kts 359°
2026-04-11 09:38 51.99367 11.33716 32126 ft 429 kts 359°
2026-04-11 09:38 52.05287 11.34877 32124 ft 428 kts 358°
2026-04-11 09:39 52.11202 11.36041 32117 ft 428 kts 358°
2026-04-11 09:39 52.17110 11.37206 32113 ft 427 kts 358°
2026-04-11 09:40 52.23010 11.38372 32118 ft 427 kts 358°
2026-04-11 09:40 52.28867 11.39533 32111 ft 427 kts 358°
2026-04-11 09:41 52.34759 11.40704 32112 ft 426 kts 358°
2026-04-11 09:41 52.40645 11.41877 32110 ft 426 kts 358°
2026-04-11 09:42 52.46524 11.43056 32111 ft 426 kts 358°
2026-04-11 09:43 52.55338 11.44828 32113 ft 425 kts 358°
2026-04-11 09:43 52.61205 11.46011 32114 ft 425 kts 358°
2026-04-11 09:44 52.67070 11.47197 32114 ft 424 kts 358°
2026-04-11 09:44 52.72931 11.48385 32117 ft 424 kts 358°
2026-04-11 09:45 52.78783 11.49574 32116 ft 423 kts 358°
2026-04-11 09:45 52.84630 11.50766 32115 ft 423 kts 358°
2026-04-11 09:46 52.90468 11.51957 32116 ft 423 kts 358°
2026-04-11 09:46 52.96307 11.53153 32110 ft 422 kts 358°
2026-04-11 09:47 53.02132 11.54349 32115 ft 422 kts 358°
2026-04-11 09:47 53.07955 11.55547 32118 ft 421 kts 358°
2026-04-11 09:48 53.13773 11.56747 32115 ft 421 kts 358°
2026-04-11 09:48 53.19581 11.57952 32119 ft 421 kts 358°
2026-04-11 09:49 53.25390 11.59359 32115 ft 426 kts
2026-04-11 09:49 53.31141 11.62116 32120 ft 431 kts
2026-04-11 09:50 53.35921 11.64474 32121 ft 430 kts
2026-04-11 09:50 53.41657 11.67314 32119 ft 430 kts
2026-04-11 09:51 53.47396 11.70176 32119 ft 430 kts
2026-04-11 09:51 53.53123 11.73044 32119 ft 429 kts
2026-04-11 09:52 53.58846 11.75918 32122 ft 429 kts
2026-04-11 09:52 53.64564 11.78796 32123 ft 429 kts
2026-04-11 09:53 53.70280 11.81683 32126 ft 428 kts
2026-04-11 09:53 53.75984 11.84572 32132 ft 428 kts
2026-04-11 09:54 53.81663 11.87457 32138 ft 428 kts
2026-04-11 09:54 53.87355 11.90356 32135 ft 427 kts
2026-04-11 09:55 53.93035 11.93258 32146 ft 426 kts
2026-04-11 09:55 53.98707 11.96164 32148 ft 425 kts
2026-04-11 09:56 54.04372 11.99073 32139 ft 425 kts
2026-04-11 09:56 54.09987 12.01966 32146 ft 424 kts
2026-04-11 09:57 54.15632 12.04883 32134 ft 424 kts
2026-04-11 09:57 54.21175 12.08658 32136 ft 437 kts 18°
2026-04-11 09:58 54.26333 12.14436 32129 ft 449 kts 26°
2026-04-11 09:58 54.31354 12.20761 32135 ft 447 kts 26°
2026-04-11 09:59 54.36363 12.27082 32143 ft 447 kts 26°
2026-04-11 09:59 54.41352 12.33420 32143 ft 446 kts 26°
2026-04-11 10:00 54.46331 12.39774 32150 ft 445 kts 26°
2026-04-11 10:00 54.51294 12.46123 32129 ft 443 kts 26°
2026-04-11 10:01 54.56083 12.52891 32157 ft 453 kts 34°
2026-04-11 10:01 54.60136 12.61455 32159 ft 467 kts 45°
2026-04-11 10:02 54.63899 12.70542 32162 ft 465 kts 44°
2026-04-11 10:02 54.67661 12.79618 32166 ft 464 kts 44°
2026-04-11 10:03 54.71400 12.88704 32172 ft 463 kts 44°
2026-04-11 10:03 54.75123 12.97792 32173 ft 462 kts 45°
2026-04-11 10:04 54.78828 13.06871 32180 ft 461 kts 45°
2026-04-11 10:04 54.82521 13.15952 32182 ft 460 kts 45°
2026-04-11 10:05 54.86198 13.25028 32186 ft 460 kts 45°
2026-04-11 10:05 54.90038 13.33775 32188 ft 444 kts 34°
2026-04-11 10:05 54.92374 13.37012 32188 ft 428 kts 22°
2026-04-11 10:06 54.94978 13.39328 32187 ft 414 kts 12°
2026-04-11 10:06 54.97697 13.40691 32184 ft 402 kts
2026-04-11 10:06 55.00454 13.41616 32201 ft 405 kts
2026-04-11 10:07 55.05999 13.43518 32201 ft 406 kts
2026-04-11 10:07 55.11541 13.45432 32206 ft 407 kts
2026-04-11 10:08 55.17100 13.47355 32205 ft 407 kts
2026-04-11 10:08 55.22654 13.49280 32206 ft 408 kts
2026-04-11 10:09 55.28240 13.51221 32223 ft 410 kts
2026-04-11 10:09 55.33830 13.53174 32208 ft 409 kts
2026-04-11 10:10 55.39392 13.55492 32210 ft 416 kts 11°
2026-04-11 10:10 55.44736 13.59750 32211 ft 429 kts 22°
2026-04-11 10:11 55.49823 13.65334 32215 ft 430 kts 23°
2026-04-11 10:11 55.54894 13.70894 32209 ft 430 kts 24°
2026-04-11 10:12 55.59986 13.76520 32216 ft 431 kts 24°
2026-04-11 10:12 55.65068 13.82167 32221 ft 432 kts 24°
2026-04-11 10:13 55.70161 13.87848 32234 ft 433 kts 25°
2026-04-11 10:13 55.75258 13.93544 32238 ft 433 kts 24°
2026-04-11 10:14 55.80621 13.98035 32239 ft 422 kts 12°
2026-04-11 10:14 55.86169 14.01392 32239 ft 422 kts 13°
2026-04-11 10:15 55.91731 14.04818 32239 ft 423 kts 13°
2026-04-11 10:15 55.97295 14.08234 32242 ft 423 kts 13°
2026-04-11 10:16 56.02833 14.11616 32249 ft 424 kts 13°
2026-04-11 10:16 56.08413 14.15059 32236 ft 425 kts 14°
2026-04-11 10:17 56.13992 14.18525 32238 ft 425 kts 14°
2026-04-11 10:17 56.19581 14.22098 32234 ft 429 kts 18°
2026-04-11 10:18 56.25076 14.26290 32234 ft 429 kts 18°
2026-04-11 10:18 56.30591 14.30456 32230 ft 430 kts 18°
2026-04-11 10:19 56.36108 14.34647 32230 ft 431 kts 18°
2026-04-11 10:19 56.41635 14.38867 32225 ft 431 kts 18°
2026-04-11 10:20 56.47169 14.43106 32223 ft 432 kts 19°
2026-04-11 10:20 56.52701 14.47357 32226 ft 433 kts 19°
2026-04-11 10:21 56.58257 14.51640 32225 ft 434 kts 19°
2026-04-11 10:21 56.63815 14.55938 32225 ft 435 kts 19°
2026-04-11 10:22 56.69385 14.60259 32228 ft 435 kts 19°
2026-04-11 10:22 56.74923 14.64569 32230 ft 436 kts 20°
2026-04-11 10:23 56.80548 14.68961 32233 ft 437 kts 20°
2026-04-11 10:23 56.86103 14.73313 32235 ft 438 kts 20°
2026-04-11 10:24 56.91719 14.77726 32236 ft 440 kts 21°
2026-04-11 10:24 56.97344 14.82162 32242 ft 441 kts 21°
2026-04-11 10:25 57.02984 14.86625 32231 ft 442 kts 21°
2026-04-11 10:25 57.08637 14.91113 32235 ft 443 kts 21°
2026-04-11 10:26 57.14298 14.95622 32243 ft 444 kts 22°
2026-04-11 10:26 57.19970 15.00156 32239 ft 445 kts 22°
2026-04-11 10:27 57.25645 15.04708 32225 ft 444 kts 22°
2026-04-11 10:27 57.31308 15.09264 32231 ft 444 kts 22°
2026-04-11 10:28 57.36814 15.14481 32236 ft 446 kts 32°
2026-04-11 10:28 57.41799 15.21374 32236 ft 448 kts 37°
2026-04-11 10:29 57.46753 15.28385 32228 ft 448 kts 37°
2026-04-11 10:29 57.51291 15.34847 32230 ft 449 kts 37°
2026-04-11 10:30 57.55243 15.40512 32237 ft 449 kts 38°
2026-04-11 10:30 57.59957 15.47298 32236 ft 449 kts 38°
2026-04-11 10:31 57.64371 15.53678 32237 ft 450 kts 38°
2026-04-11 10:31 57.69314 15.60847 32243 ft 450 kts 39°
2026-04-11 10:32 57.74255 15.68037 32247 ft 450 kts 39°
2026-04-11 10:32 57.79189 15.75246 32250 ft 450 kts 39°
2026-04-11 10:33 57.84127 15.82485 32248 ft 450 kts 39°
2026-04-11 10:33 57.89054 15.89732 32250 ft 450 kts 39°
2026-04-11 10:34 57.93978 15.97002 32257 ft 450 kts 40°
2026-04-11 10:34 57.98896 16.04285 32262 ft 450 kts 40°
2026-04-11 10:35 58.03794 16.11595 32245 ft 448 kts 37°
2026-04-11 10:35 58.08668 16.18885 32254 ft 447 kts 37°
2026-04-11 10:36 58.13544 16.26181 32255 ft 447 kts 37°
2026-04-11 10:36 58.18415 16.33496 32256 ft 447 kts 37°
2026-04-11 10:37 58.23280 16.40832 32260 ft 447 kts 37°
2026-04-11 10:37 58.27966 16.48594 31925 ft 448 kts 46°
2026-04-11 10:37 58.29971 16.53115 31547 ft 449 kts 52°
2026-04-11 10:38 58.31195 16.56276 31183 ft 448 kts 52°
2026-04-11 10:38 58.33047 16.61018 30634 ft 444 kts 52°
2026-04-11 10:38 58.36721 16.70382 28986 ft 443 kts 53°
2026-04-11 10:39 58.38576 16.75127 27781 ft 449 kts 53°
2026-04-11 10:39 58.40442 16.79916 26809 ft 451 kts 54°
2026-04-11 10:39 58.42339 16.84682 25909 ft 452 kts 50°
2026-04-11 10:39 58.44621 16.88792 25039 ft 453 kts 38°
2026-04-11 10:40 58.47272 16.92057 24191 ft 453 kts 32°
2026-04-11 10:40 58.49972 16.95129 23270 ft 452 kts 32°
2026-04-11 10:40 58.52671 16.98174 22288 ft 447 kts 32°
2026-04-11 10:40 58.55320 17.01168 21353 ft 436 kts 32°
2026-04-11 10:41 58.57904 17.04086 20452 ft 427 kts 32°
2026-04-11 10:41 58.60437 17.06946 19578 ft 418 kts 32°
2026-04-11 10:41 58.62926 17.09754 18722 ft 411 kts 32°
2026-04-11 10:41 58.65366 17.12507 17789 ft 404 kts 32°
2026-04-11 10:42 58.67769 17.15223 16850 ft 397 kts 32°
2026-04-11 10:42 58.70131 17.17898 15947 ft 391 kts 32°
2026-04-11 10:42 58.72442 17.20521 15335 ft 378 kts 32°
2026-04-11 10:42 58.74647 17.23023 14975 ft 360 kts 32°
2026-04-11 10:43 58.78907 17.27861 13515 ft 351 kts 32°
2026-04-11 10:43 58.80997 17.30237 12751 ft 346 kts 32°
2026-04-11 10:43 58.83062 17.32581 12035 ft 342 kts 32°
2026-04-11 10:44 58.85098 17.34897 11335 ft 338 kts 32°
2026-04-11 10:44 58.87110 17.37190 10643 ft 334 kts 32°
2026-04-11 10:44 58.89060 17.39412 10369 ft 316 kts 32°
2026-04-11 10:44 58.90896 17.41499 10196 ft 297 kts 32°
2026-04-11 10:45 58.92638 17.43468 9835 ft 286 kts 32°
2026-04-11 10:45 58.94342 17.45393 9299 ft 282 kts 32°
2026-04-11 10:45 58.96029 17.47299 8734 ft 280 kts 32°
2026-04-11 10:45 58.97755 17.48996 8154 ft 279 kts 18°
2026-04-11 10:46 58.99678 17.49315 7590 ft 279 kts 358°
2026-04-11 10:46 59.01610 17.49042 7039 ft 277 kts 357°
2026-04-11 10:46 59.03524 17.48756 6533 ft 275 kts 357°
2026-04-11 10:46 59.05426 17.48475 5988 ft 273 kts 357°
2026-04-11 10:47 59.07316 17.48200 5413 ft 272 kts 357°
2026-04-11 10:47 59.09203 17.47931 4905 ft 271 kts 357°
2026-04-11 10:47 59.11054 17.47670 4400 ft 269 kts 357°
2026-04-11 10:47 59.12926 17.47394 4071 ft 262 kts 357°
2026-04-11 10:48 59.14740 17.47127 3983 ft 266 kts 357°
2026-04-11 10:48 59.16580 17.46860 3980 ft 269 kts 357°
2026-04-11 10:48 59.18442 17.46587 3990 ft 268 kts 357°
2026-04-11 10:48 59.20291 17.46323 3807 ft 264 kts 357°
2026-04-11 10:49 59.22122 17.46056 3380 ft 263 kts 357°
2026-04-11 10:49 59.23939 17.45789 2897 ft 262 kts 357°
2026-04-11 10:49 59.25728 17.45515 2594 ft 254 kts 357°
2026-04-11 10:49 59.27479 17.45240 2484 ft 257 kts 357°
2026-04-11 10:50 59.29361 17.44957 2470 ft 289 kts 357°
2026-04-11 10:50 59.31416 17.44657 2485 ft 292 kts 357°
2026-04-11 10:50 59.33353 17.44365 2486 ft 266 kts 357°
2026-04-11 10:50 59.35116 17.44091 2484 ft 243 kts 357°
2026-04-11 10:51 59.36729 17.43841 2486 ft 224 kts 357°
2026-04-11 10:51 59.38318 17.43603 2487 ft 229 kts 357°
2026-04-11 10:51 59.39517 17.43419 2491 ft 229 kts 357°
2026-04-11 10:52 59.41103 17.43176 2495 ft 229 kts 357°
2026-04-11 10:52 59.42696 17.42933 2487 ft 229 kts 357°
2026-04-11 10:52 59.44283 17.42688 2488 ft 228 kts 357°
2026-04-11 10:52 59.45875 17.42441 2487 ft 230 kts 357°
2026-04-11 10:53 59.47461 17.42196 2494 ft 228 kts 357°
2026-04-11 10:53 59.49047 17.41950 2488 ft 228 kts 357°
2026-04-11 10:53 59.50632 17.41701 2498 ft 229 kts 357°
2026-04-11 10:53 59.52225 17.41449 2497 ft 228 kts 357°
2026-04-11 10:54 59.53818 17.41191 2483 ft 230 kts 357°
2026-04-11 10:54 59.55368 17.41391 2491 ft 221 kts 23°
2026-04-11 10:54 59.56548 17.43250 2496 ft 220 kts 57°
2026-04-11 10:54 59.57333 17.45852 2468 ft 220 kts 64°
2026-04-11 10:55 59.58028 17.48487 2491 ft 215 kts 65°
2026-04-11 10:55 59.58692 17.51158 2483 ft 218 kts 66°
2026-04-11 10:55 59.59325 17.53862 2509 ft 219 kts 68°
2026-04-11 10:55 59.59937 17.56592 2492 ft 215 kts 66°
2026-04-11 10:56 59.60654 17.59222 2495 ft 218 kts 62°
2026-04-11 10:56 59.61395 17.61800 2488 ft 211 kts 63°
2026-04-11 10:56 59.61923 17.64360 2501 ft 193 kts 75°
2026-04-11 10:56 59.62295 17.66828 2500 ft 181 kts 76°
2026-04-11 10:57 59.62621 17.69096 2490 ft 167 kts 76°
2026-04-11 10:57 59.62947 17.71398 2507 ft 181 kts 76°
2026-04-11 10:57 59.63273 17.73781 2264 ft 174 kts 77°
2026-04-11 10:57 59.63571 17.76001 2011 ft 162 kts 77°
2026-04-11 10:58 59.63850 17.78066 1752 ft 149 kts 77°
2026-04-11 10:58 59.64113 17.80035 1542 ft 148 kts 76°
2026-04-11 10:58 59.64362 17.81898 1364 ft 133 kts 78°
2026-04-11 10:58 59.64579 17.83619 1172 ft 126 kts 77°
2026-04-11 10:59 59.64795 17.85284 967 ft 126 kts 78°
2026-04-11 10:59 59.65007 17.86965 787 ft 126 kts 78°
2026-04-11 10:59 59.65206 17.88665 635 ft 127 kts 77°
2026-04-11 10:59 59.65433 17.90368 475 ft 130 kts 78°
2026-04-11 11:00 59.65650 17.92093 289 ft 128 kts 77°
2026-04-11 11:00 59.65868 17.93793 152 ft 127 kts 78°
2026-04-11 11:00 59.66058 17.95353 121 ft 95 kts 75°
2026-04-11 11:00 59.66176 17.96259 120 ft 56 kts 75°
2026-04-11 11:01 59.66267 17.96952 120 ft 48 kts 77°
2026-04-11 11:01 59.66342 17.97535 126 ft 36 kts 76°
2026-04-11 11:01 59.66374 17.97808 128 ft 11 kts 78°
2026-04-11 11:01 59.66339 17.97924 132 ft 10 kts 159°
2026-04-11 11:02 59.66277 17.97895 134 ft 10 kts 225°
2026-04-11 11:02 59.66236 17.97814 136 ft 7 kts 224°
2026-04-11 11:02 59.66202 17.97750 137 ft 7 kts 224°
2026-04-11 11:02 59.66172 17.97657 136 ft 10 kts 252°
2026-04-11 11:03 59.66147 17.97481 133 ft 16 kts 258°
2026-04-11 11:03 59.66116 17.97225 125 ft 22 kts 256°
2026-04-11 11:03 59.66081 17.96959 121 ft 17 kts 256°
2026-04-11 11:03 59.66055 17.96746 118 ft 18 kts 257°
2026-04-11 11:04 59.66022 17.96472 114 ft 23 kts 256°
2026-04-11 11:04 59.65977 17.96138 110 ft 26 kts 256°
2026-04-11 11:04 59.65935 17.95799 118 ft 24 kts 256°
2026-04-11 11:04 59.65900 17.95518 121 ft 19 kts 256°
2026-04-11 11:05 59.65872 17.95297 121 ft 15 kts 255°
2026-04-11 11:05 59.65850 17.95147 123 ft 10 kts 244°
2026-04-11 11:05 59.65784 17.95109 122 ft 10 kts 191°
2026-04-11 11:05 59.65745 17.94987 123 ft 13 kts 256°
2026-04-11 11:06 59.65720 17.94787 121 ft 17 kts 256°
2026-04-11 11:06 59.65688 17.94544 121 ft 19 kts 255°
2026-04-11 11:06 59.65653 17.94269 124 ft 22 kts 257°
2026-04-11 11:06 59.65613 17.93941 113 ft 28 kts 256°
2026-04-11 11:07 59.65565 17.93557 112 ft 29 kts 255°
2026-04-11 11:07 59.65519 17.93203 111 ft 21 kts 255°
2026-04-11 11:07 59.65484 17.92955 110 ft 19 kts 252°
2026-04-11 11:07 59.65434 17.92717 111 ft 19 kts 241°
2026-04-11 11:08 59.65347 17.92520 110 ft 19 kts 217°
2026-04-11 11:08 59.65231 17.92399 111 ft 18 kts 198°
2026-04-11 11:08 59.65107 17.92350 110 ft 18 kts 190°
2026-04-11 11:08 59.64985 17.92305 111 ft 18 kts 190°
2026-04-11 11:09 59.64890 17.92270 111 ft 11 kts 190°
2026-04-11 11:09 59.64819 17.92245 111 ft 11 kts 190°
2026-04-11 11:09 59.64750 17.92230 111 ft 8 kts 167°
2026-04-11 11:09 59.64721 17.92300 111 ft 7 kts 107°
2026-04-11 11:10 59.64705 17.92408 111 ft 7 kts 106°
2026-04-11 11:10 59.64694 17.92483 110 ft 7 kts 106°
2026-04-11 11:10 59.64691 17.92522 111 ft 3 kts 88°
2026-04-11 11:10 59.64708 17.92560 111 ft 5 kts 38°
2026-04-11 11:11 59.64730 17.92592 111 ft 4 kts 35°
2026-04-11 11:11 59.64736 17.92600 111 ft 0 kts 35°